Regional Weather Roundup
Issued by NWS Charleston, SC

Current Version | Previous Version | Graphics & Text | Print | Product List | Glossary On
Versions: 1 2 3 4 5 6 7 8 9 10 11 12 13 14 15 16 17 18 19 20 21 22 23 24 25 26 27 28 29 30 31 32 33 34 35 36 37 38 39 40 41 42 43 44 45 46 47 48 49 50
612
ASUS42 KCHS 021413
RWRCHS

REGIONAL WEATHER ROUNDUP
NATIONAL WEATHER SERVICE CHARLESTON SC
1000 AM EDT MON MAY 02 2016

NOTE: "FAIR" INDICATES FEW OR NO CLOUDS BELOW 12,000 FEET WITH NO
SIGNIFICANT WEATHER AND/OR OBSTRUCTIONS TO VISIBILITY.

NOT ALL STATIONS ARE QUALITY CONTROLLED. USE DATA WITH CAUTION...
ESPECIALLY DEWPOINT OBSERVATIONS.

SCZ027-030-031-034>040-042>050-021500-
...SOUTHEAST SOUTH CAROLINA...

CITY           SKY/WX    TMP DP  RH WIND       PRES   REMARKS
N CHARLESTON   PTSUNNY   80  69  69 SW10      30.06S
WATERFRONT PRK   N/A     77  71  82 SW9       30.04S
MOUNT PLEASANT FAIR      79  70  73 SW9       30.07S
JOHNS ISLAND   FAIR      79  72  78 SW10G18   30.07S
PINOPOLIS        N/A     79  72  78 VRB2      30.00R
MONCKS CORNER  PTSUNNY   75  68  78 SW10      30.06F
SUMMERVILLE    PTSUNNY   77  73  88 S3        30.08S
BEAUFORT MCAS  PTSUNNY   79  71  76 S7        30.06S
BEAUFORT ARPT  PTSUNNY   79  70  73 S12       30.06S
HILTON HEAD IS NOT AVBL
WALTERBORO     CLOUDY    81  73  78 S9        30.07S
ALLENDALE      CLOUDY    75  72  88 VRB7      30.05S

...SOUTHERN MIDLANDS AND PEE DEE...

CITY           SKY/WX    TMP DP  RH WIND       PRES   REMARKS
GEORGETOWN     CLOUDY    77  70  78 SW7       30.08S
KINGSTREE      PTSUNNY   73  68  83 SW8       30.06F
ORANGEBURG     CLOUDY    73  69  87 SW10      30.06F
BARNWELL       CLOUDY    73  73 100 S7        30.06F
AIKEN          FAIR      72  68  88 SW10      30.08S
MANNING        NOT AVBL
COLUMBIA       CLOUDY    76  68  76 S9        30.04S
SUMTER         CLOUDY    73  68  84 SW10      30.04S
FLORENCE       PTSUNNY   75  69  81 W9        30.06S
MYRTLE BEACH   CLOUDY    77  66  69 W7        30.09S
N MYRTLE BEACH PTSUNNY   76  71  85 SW9       30.06S

$$

GAZ063-065-086>088-099>101-113>116-118-119-134>141-150-021500-
...SOUTHEAST GEORGIA...

CITY           SKY/WX    TMP DP  RH WIND       PRES   REMARKS
SAVANNAH ARPT  CLOUDY    78  70  76 SW9       30.07R
HUNTER AAF     NOT AVBL
FORT STEWART   NOT AVBL
STATESBORO     CLOUDY    79  75  85 S10       30.06S
SYLVANIA       CLOUDY    75  73  94 SW5       30.07S
CLAXTON        FAIR      76  73  89 S5        30.06S

...CSRA...CENTRAL AND FAR SOUTHEAST GEORGIA...

CITY           SKY/WX    TMP DP  RH WIND       PRES   REMARKS
THOMSON        SUNNY     78  70  76 SW3       30.09S
AUGUSTA-BUSH   MOSUNNY   76  67  73 VRB6      30.04F
AUGUSTA-DANIEL SUNNY     76  66  71 S6        30.05S
SWAINSBORO     CLOUDY    72  70  94 S7        30.07S
VIDALIA        MOSUNNY   75  70  83 SW8       30.07R
EASTMAN        FAIR      75  74  99 S3        30.07F
HAZLEHURST     FAIR      77  71  82 S8        30.05S
ALMA           MOSUNNY   75  70  84 S8        30.05S
WAYCROSS       MOSUNNY   78  72  81 SW12      30.06S
JESUP          PTSUNNY   79  73  83 SW7       30.06S
BAXLEY         PTSUNNY   79  73  83 SW12      30.06S
BRUNSWICK      CLOUDY    82  70  65 SW10      30.08R
SAINT SIMONS   PTSUNNY   78  71  79 S9        30.07R

$$

SCZ027-028-034-036>038-045-046-048>050-GAZ119-141-021500-
...LAKE AND SUPPLEMENTAL COASTAL OBSERVATIONS...

STATION/POSITION TIME  TEMP    WIND        PRES    WAVE   SWELL
                       AIR SEA DIR/SP/G            HT/PER HT/PER/DIR
                 (UTC) (F)     (DEG/KT/KT) (MB)    (FT/S) (FT/S/D)
WINYAH BAY       1245   74     220/  6     1017.0
LAKE MURRAY      1300   70     230/  5/  7 1016.9R
ACE BASIN NERRS  1245   76        CALM     1018.0
FORT PULASKI     1300   76 74  190/  5/ 10 1018.2R
SAPELO ISLAND    1300   77     190/ 10     1018.0R

$$

ANZ835-935-AMZ111-154-330-350-352-354-370-450-454-472-021500-
...C-MAN AND BUOY OBSERVATIONS...

STATION/POSITION TIME  TEMP    WIND        PRES    WAVE   SWELL
                       AIR SEA DIR/SP/G            HT/PER HT/PER/DIR
                 (UTC) (F)     (DEG/KT/KT) (MB)    (FT/S) (FT/S/D)
BUOY 41004       1350   75 73  230/  6/  8 1018.1R   3/ 5   3/ 5
BUOY 41008       NOT AVBL
FOLLY BEACH CMAN 1300   74     200/  8/  9 1018.3R
CAPERS NEARSHORE 1308   74 72  220/  8/ 12 1018.1R
FRIPP NEARSHORE  1308   75 75  200/  8/ 10 1017.4R


STATION/POSITION TIME  TEMP    WIND        PRES    WAVE   SWELL
                       AIR SEA DIR/SP/G            HT/PER HT/PER/DIR
                 (UTC) (F)     (DEG/KT/KT) (MB)    (FT/S) (FT/S/D)
5E ST. MARYS GA  1321      74                N/A     2/11   2/ 70/11
FRYING PAN BUOY  1300   74 72  200/ 10/ 12 1018.4R
BUOY 41025       1350   74 73  220/ 14/ 16 1018.1R   5/ 9   3/ 80/ 9
CAPE LOOKOUT NC  1300   73     220/  9/ 11 1017.9R
BUOY 41002       1350   73 74  160/  8/ 10 1020.9R   3/10   3/ 30/10
BUOY 41010       1320   77 78  160/ 12/ 14 1019.1R
ST AUGUSTINE FL  1400   75 71   90/  2/  2 1019.3R


$$




USA.gov is the U.S. government's official web portal to all federal, state and local government web resources and services.